Satellite: AO-49
Catalog number: 27605
Epoch time:      05348.89470584
Element set:     916
Inclination:      064.5585 deg
RA of node:       305.8796 deg
Eccentricity:    0.0065400
Arg of perigee:   201.7145 deg
Mean anomaly:     158.1181 deg
Mean motion:   14.72162394 rev/day
Decay rate:        9.7e-07 rev/day^2
Epoch rev:           16045
Checksum:              327

Satellite: SO-50
Catalog number: 27607
Epoch time:      05348.39696039
Element set:    0894
Inclination:      064.5588 deg
RA of node:       313.9969 deg
Eccentricity:    0.0065444
Arg of perigee:   200.3670 deg
Mean anomaly:     159.4827 deg
Mean motion:   14.71073097 rev/day
Decay rate:       2.41e-06 rev/day^2
Epoch rev:           16024
Checksum:              335

Satellite: AO-51
Catalog number: 28375
Epoch time:      05349.70145289
Element set:     413
Inclination:      098.1929 deg
RA of node:       044.8426 deg
Eccentricity:    0.0085232
Arg of perigee:   042.6497 deg
Mean anomaly:     318.1263 deg
Mean motion:   14.40495391 rev/day
Decay rate:        5.2e-07 rev/day^2
Epoch rev:            7674
Checksum:              320

Satellite: XO-53
Catalog number: 28894
Epoch time:      05349.77793993
Element set:     176
Inclination:      098.1825 deg
RA of node:       245.7975 deg
Eccentricity:    0.0018431
Arg of perigee:   028.2677 deg
Mean anomaly:     331.9515 deg
Mean motion:   14.59426234 rev/day
Decay rate:        2.3e-07 rev/day^2
Epoch rev:             722
Checksum:              343

/EX
SB KEPS @ AMSAT  $ORB05349.W
Orbital Elements  05349.WEATHER

HR AMSAT ORBITAL ELEMENTS FOR WEATHER SATELLITES
FROM WA5QGD FORT WORTH,TX December 15, 2005
Send SUBSCRIBE KEPS/UNSUBSCRIBE KEPS to majordomo@amsat.org only
BID: ORB05349.W
TO ALL RADIO AMATEURS BT

Satellite: NOAA-10
Catalog number: 16969
Epoch time:      05348.91470925
Element set:    0013
Inclination:      098.7647 deg
RA of node:       355.1252 deg
Eccentricity:    0.0012010
Arg of perigee:   330.8741 deg
Mean anomaly:     029.1777 deg
Mean motion:   14.27279805 rev/day
Decay rate:        9.0e-07 rev/day^2
Epoch rev:           00087
Checksum:              300

Satellite: NOAA-11
Catalog number: 19531
Epoch time:      05348.56594114
Element set:    0900
Inclination:      098.8399 deg
RA of node:       073.9273 deg
Eccentricity:    0.0012066
Arg of perigee:   152.2848 deg
Mean anomaly:     207.8970 deg
Mean motion:   14.14783644 rev/day
Decay rate:       1.97e-06 rev/day^2
Epoch rev:           88843
Checksum:              340

Satellite: NOAA-12
Catalog number: 21263
Epoch time:      05348.85329586
Element set:    0389
Inclination:      098.7172 deg
RA of node:       338.0528 deg
Eccentricity:    0.0011961
Arg of perigee:   263.7799 deg
Mean anomaly:     096.1996 deg
Mean motion:   14.25480128 rev/day
Decay rate:       1.66e-06 rev/day^2
Epoch rev:           75798
Checksum:              361

Satellite: MET-3/5
Catalog number: 21655
Epoch time:      05348.91092182
Element set:    0990
Inclination:      082.5598 deg
RA of node:       030.9896 deg
Eccentricity:    0.0013879
Arg of perigee:   138.0162 deg
Mean anomaly:     222.2029 deg
Mean motion:   13.17005219 rev/day
Decay rate:        5.1e-07 rev/day^2
Epoch rev:           68910
Checksum:              307

Satellite: MET-2/21
Catalog number: 22782
Epoch time:      05348.91616085
Element set:    0379
Inclination:      082.5436 deg
RA of node:       117.6401 deg
Eccentricity:    0.0021899
Arg of perigee:   340.3967 deg
Mean anomaly:     019.6386 deg
Mean motion:   13.83600439 rev/day
Decay rate:       2.36e-06 rev/day^2
Epoch rev:           62056
Checksum:              320

Satellite: OKEAN-4
Catalog number: 23317
Epoch time:      05348.73185152
Element set:    0812
Inclination:      082.5400 deg
RA of node:       089.0435 deg
Eccentricity:    0.0020636
Arg of perigee:   262.3335 deg
Mean anomaly:     097.5525 deg
Mean motion:   14.82279772 rev/day
Decay rate:       3.79e-06 rev/day^2
Epoch rev:           60265
Checksum:              302

Satellite: NOAA-14
Catalog number: 23455
Epoch time:      05348.56751824
Element set:    0908
Inclination:      099.0683 deg
RA of node:       039.6274 deg
Eccentricity:    0.0009100
Arg of perigee:   208.0012 deg
Mean anomaly:     152.0682 deg
Mean motion:   14.13620030 rev/day
Decay rate:       1.74e-06 rev/day^2
Epoch rev:           56498
Checksum:              286

Satellite: SICH-1
Catalog number: 23657
Epoch time:      05348.87186667
Element set:    0617
Inclination:      082.5287 deg
RA of node:       229.7611 deg
Eccentricity:    0.0022521
Arg of perigee:   248.6839 deg
Mean anomaly:     111.2004 deg
Mean motion:   14.81284164 rev/day
Decay rate:       3.92e-06 rev/day^2
Epoch rev:           55470
Checksum:              312

Satellite: NOAA-15
Catalog number: 25338
Epoch time:      05348.72274352
Element set:    0310
Inclination:      098.5143 deg
RA of node:       351.5797 deg
Eccentricity:    0.0010485
Arg of perigee:   187.7458 deg
Mean anomaly:     172.3565 deg
Mean motion:   14.24553144 rev/day
Decay rate:        2.2e-07 rev/day^2
Epoch rev:           39445
Checksum:              310

Satellite: RESURS
Catalog number: 25394
Epoch time:      05348.92235697
Element set:    0270
Inclination:      098.5203 deg
RA of node:       052.8018 deg
Eccentricity:    0.0001781
Arg of perigee:   022.0675 deg
Mean anomaly:     338.0578 deg
Mean motion:   14.24090372 rev/day
Decay rate:        2.0e-07 rev/day^2
Epoch rev:           38617
Checksum:              288

